| time (UTC) | temp F | wind direction | speed knots | gust knots | rain 1hr in | rain 24hr in | rain mn in | humidity % | barometer mb |
| 20260504045018 | 44 | 153 | 2.6 | 6.1 | 0.00 | 0.15 | 0.00 | 73 | 1019.7 |
| 20260504044016 | 44 | 188 | 4.3 | 7.8 | 0.00 | 0.15 | 0.00 | 73 | 1019.7 |
| 20260504043016 | 43 | 197 | 7.0 | 9.6 | 0.00 | 0.15 | 0.00 | 74 | 1019.6 |
| 20260504042017 | 43 | 196 | 5.2 | 9.6 | 0.00 | 0.15 | 0.00 | 73 | 1019.5 |
| 20260504041018 | 43 | 194 | 5.2 | 7.8 | 0.00 | 0.15 | 0.00 | 73 | 1019.4 |
| 20260504040018 | 43 | 192 | 4.3 | 7.0 | 0.00 | 0.15 | 0.00 | 74 | 1019.3 |
| 20260504035018 | 43 | 186 | 4.3 | 7.0 | 0.00 | 0.15 | 0.00 | 74 | 1019.2 |
| 20260504034016 | 43 | 187 | 3.5 | 7.0 | 0.00 | 0.15 | 0.00 | 73 | 1019.0 |
| 20260504033038 | 43 | 170 | 2.6 | 5.2 | 0.00 | 0.15 | 0.00 | 74 | 1019.0 |
| 20260504032018 | 43 | 190 | 3.5 | 7.8 | 0.00 | 0.15 | 0.00 | 74 | 1019.0 |
| 20260504031018 | 43 | 191 | 4.3 | 7.8 | 0.00 | 0.16 | 0.00 | 74 | 1019.0 |
| 20260504030017 | 43 | 193 | 3.5 | 6.1 | 0.00 | 0.16 | 0.00 | 74 | 1019.0 |
| 20260504025018 | 43 | 178 | 1.7 | 3.5 | 0.00 | 0.16 | 0.00 | 74 | 1019.0 |
| 20260504024018 | 43 | 162 | 1.7 | 7.0 | 0.00 | 0.16 | 0.00 | 74 | 1019.0 |
| 20260504023037 | 43 | 190 | 5.2 | 8.7 | 0.00 | 0.16 | 0.00 | 74 | 1019.0 |
| 20260504022016 | 43 | 176 | 4.3 | 8.7 | 0.00 | 0.16 | 0.00 | 73 | 1018.9 |
| 20260504021038 | 43 | 175 | 5.2 | 9.6 | 0.00 | 0.16 | 0.00 | 73 | 1019.0 |
| 20260504020018 | 43 | 190 | 4.3 | 7.8 | 0.00 | 0.16 | 0.00 | 73 | 1019.0 |
| 20260504015018 | 44 | 191 | 4.3 | 6.1 | 0.00 | 0.16 | 0.00 | 73 | 1018.9 |
| 20260504014038 | 44 | 184 | 4.3 | 7.0 | 0.00 | 0.16 | 0.00 | 73 | 1018.9 |
| 20260504013016 | 43 | 185 | 3.5 | 6.1 | 0.00 | 0.16 | 0.00 | 73 | 1018.9 |
| 20260504012016 | 44 | 174 | 3.5 | 7.8 | 0.00 | 0.16 | 0.00 | 72 | 1018.8 |
| 20260504011018 | 44 | 174 | 3.5 | 9.6 | 0.00 | 0.16 | 0.00 | 73 | 1018.7 |
| 20260504010016 | 43 | 166 | 4.3 | 10.4 | 0.00 | 0.16 | 0.00 | 75 | 1018.6 |
| 20260504005018 | 43 | 166 | 4.3 | 11.3 | 0.00 | 0.16 | 0.00 | 76 | 1018.6 |
| 20260504004018 | 42 | 165 | 4.3 | 11.3 | 0.00 | 0.16 | 0.00 | 76 | 1018.6 |
| 20260504003016 | 43 | 185 | 5.2 | 8.7 | 0.00 | 0.16 | 0.00 | 74 | 1018.7 |
| 20260504002058 | 44 | 197 | 5.2 | 9.6 | 0.00 | 0.16 | 0.00 | 74 | 1018.8 |
| 20260504001017 | 44 | 196 | 6.1 | 10.4 | 0.00 | 0.16 | 0.00 | 75 | 1018.7 |
| 20260504000016 | 44 | 192 | 6.1 | 10.4 | 0.00 | 0.16 | 0.00 | 75 | 1018.7 |
| 20260503235016 | 44 | 195 | 6.1 | 8.7 | 0.00 | 0.16 | 0.00 | 75 | 1018.7 |
| 20260503234016 | 44 | 180 | 5.2 | 12.2 | 0.00 | 0.16 | 0.00 | 75 | 1018.7 |
| 20260503233016 | 44 | 180 | 6.1 | 9.6 | 0.00 | 0.16 | 0.00 | 76 | 1018.8 |
| 20260503232016 | 44 | 185 | 5.2 | 9.6 | 0.00 | 0.16 | 0.00 | 74 | 1018.9 |
| 20260503231018 | 45 | 180 | 4.3 | 8.7 | 0.00 | 0.16 | 0.00 | 74 | 1018.8 |
| 20260503230016 | 45 | 189 | 4.3 | 7.0 | 0.00 | 0.16 | 0.00 | 74 | 1018.9 |
| 20260503225016 | 45 | 181 | 5.2 | 9.6 | 0.00 | 0.16 | 0.00 | 74 | 1018.9 |
| 20260503224018 | 45 | 177 | 4.3 | 11.3 | 0.00 | 0.16 | 0.00 | 74 | 1019.1 |
| 20260503223038 | 45 | 186 | 6.1 | 9.6 | 0.00 | 0.16 | 0.00 | 74 | 1019.1 |
| 20260503222016 | 46 | 191 | 4.3 | 7.8 | 0.00 | 0.16 | 0.00 | 73 | 1019.1 |
| 20260503221036 | 46 | 185 | 3.5 | 8.7 | 0.00 | 0.16 | 0.00 | 74 | 1019.2 |
| 20260503220017 | 45 | 179 | 3.5 | 7.8 | 0.00 | 0.16 | 0.00 | 75 | 1019.1 |
| 20260503215018 | 45 | 172 | 4.3 | 9.6 | 0.00 | 0.16 | 0.00 | 76 | 1019.2 |
| 20260503214018 | 45 | 178 | 4.3 | 10.4 | 0.00 | 0.16 | 0.00 | 76 | 1019.1 |
| 20260503213016 | 45 | 211 | 7.0 | 10.4 | 0.00 | 0.16 | 0.00 | 74 | 1019.2 |
| 20260503212018 | 46 | 188 | 4.3 | 7.8 | 0.00 | 0.16 | 0.00 | 74 | 1019.1 |
| 20260503211016 | 46 | 186 | 3.5 | 7.8 | 0.00 | 0.16 | 0.00 | 73 | 1019.1 |
| 20260503210016 | 47 | 188 | 5.2 | 7.8 | 0.00 | 0.16 | 0.16 | 72 | 1019.1 |
| 20260503205015 | 47 | 177 | 3.5 | 8.7 | 0.00 | 0.16 | 0.16 | 74 | 1019.0 |
| 20260503204015 | 46 | 190 | 5.2 | 9.6 | 0.00 | 0.16 | 0.16 | 74 | 1019.0 |
| 20260503203037 | 47 | 183 | 7.0 | 12.2 | 0.00 | 0.16 | 0.16 | 74 | 1019.1 |
| 20260503202016 | 46 | 176 | 5.2 | 9.6 | 0.00 | 0.16 | 0.16 | 75 | 1019.2 |
| 20260503201015 | 46 | 170 | 5.2 | 9.6 | 0.00 | 0.16 | 0.16 | 75 | 1019.3 |
| 20260503200016 | 47 | 175 | 5.2 | 12.2 | 0.00 | 0.16 | 0.16 | 74 | 1019.4 |
| 20260503195017 | 47 | 183 | 5.2 | 9.6 | 0.00 | 0.16 | 0.16 | 74 | 1019.4 |
| 20260503194037 | 47 | 164 | 4.3 | 10.4 | 0.00 | 0.16 | 0.16 | 74 | 1019.3 |
| 20260503193017 | 47 | 174 | 5.2 | 10.4 | 0.00 | 0.16 | 0.16 | 74 | 1019.3 |
| 20260503192035 | 48 | 4 | 6.1 | 10.4 | 0.00 | 0.16 | 0.16 | 73 | 1019.3 |
| 20260503191016 | 48 | 0 | 4.3 | 10.4 | 0.00 | 0.16 | 0.16 | 74 | 1019.3 |
| 20260503190017 | 48 | 0 | 5.2 | 12.2 | 0.00 | 0.16 | 0.16 | 74 | 1019.3 |
| 20260503185015 | 49 | 0 | 6.1 | 10.4 | 0.00 | 0.16 | 0.16 | 73 | 1019.3 |
| 20260503184015 | 49 | 0 | 5.2 | 10.4 | 0.00 | 0.16 | 0.16 | 74 | 1019.2 |
| 20260503183015 | 50 | 0 | 5.2 | 9.6 | 0.00 | 0.16 | 0.16 | 72 | 1019.1 |
| 20260503182017 | 50 | 0 | 7.0 | 9.6 | 0.00 | 0.16 | 0.16 | 71 | 1019.0 |
| 20260503181016 | 51 | 0 | 3.5 | 7.8 | 0.00 | 0.16 | 0.16 | 70 | 1018.8 |
| 20260503180015 | 52 | 0 | 3.5 | 5.2 | 0.00 | 0.16 | 0.16 | 68 | 1018.8 |
| 20260503175015 | 52 | 0 | 1.7 | 3.5 | 0.00 | 0.16 | 0.16 | 68 | 1018.7 |
| 20260503174017 | 53 | 0 | 1.7 | 4.3 | 0.00 | 0.16 | 0.16 | 67 | 1018.6 |
| 20260503173016 | 55 | 0 | 1.7 | 4.3 | 0.00 | 0.16 | 0.16 | 64 | 1018.5 |
| 20260503172015 | 57 | 0 | 0.9 | 2.6 | 0.00 | 0.16 | 0.16 | 61 | 1018.4 |
| 20260503171015 | 58 | 0 | 0.0 | 1.7 | 0.00 | 0.16 | 0.16 | 58 | 1018.3 |
| 20260503131015 | 56 | 346 | 4.3 | 8.7 | 0.00 | 0.16 | 0.16 | 62 | 1018.7 |
| 20260503081515 | 48 | 1 | 3.5 | 10.4 | 0.09 | 0.13 | 0.13 | 77 | 1019.4 |
| 20260503080517 | 48 | 0 | 3.5 | 7.8 | 0.09 | 0.11 | 0.11 | 78 | 1019.2 |
| 20260503072516 | 50 | 0 | 1.7 | 3.5 | 0.06 | 0.06 | 0.06 | 78 | 1018.4 |
| 20260503071516 | 50 | 0 | 1.7 | 3.5 | 0.02 | 0.03 | 0.03 | 77 | 1018.3 |
| 20260503070518 | 51 | 0 | 0.9 | 1.7 | 0.01 | 0.02 | 0.02 | 77 | 1018.1 |
| 20260503054517 | 49 | 0 | 2.6 | 4.3 | 0.00 | 0.02 | 0.01 | 78 | 1017.5 |
| 20260503053537 | 49 | 0 | 2.6 | 7.8 | 0.00 | 0.02 | 0.01 | 77 | 1017.4 |
| 20260503052515 | 49 | 0 | 2.6 | 5.2 | 0.00 | 0.02 | 0.01 | 77 | 1017.3 |